• In Hungary
  • List of Countries
  • For 7 days
  • Water Temperature
  • Satellite Maps
  • Weather Map
  • News
  • Weather Widgets
  • user-avatar
    Login

    Hourly Weather Horodys'ka

    Today, 11 December, Monday

    Time Temperature Precipitation Wind Pressure Humidity
    00:00 -4°C° 0 mm 4 mps 733 mmHg 81%
    01:00 -4°C° 0 mm 4 mps 732 mmHg 78%
    02:00 -5°C° 0 mm 4 mps 732 mmHg 80%
    03:00 -4°C° 0 mm 4 mps 732 mmHg 77%
    04:00 -5°C° 0 mm 5 mps 732 mmHg 74%
    05:00 -4°C° 0 mm 6 mps 731 mmHg 71%
    06:00 -4°C° 0 mm 6 mps 731 mmHg 70%
    07:00 -4°C° 0 mm 5 mps 732 mmHg 69%
    08:00 -3°C° 0 mm 4 mps 731 mmHg 69%
    09:00 -2°C° 0 mm 5 mps 731 mmHg 69%
    10:00 -1°C° 0 mm 5 mps 732 mmHg 69%
    11:00 -1°C° 0 mm 6 mps 732 mmHg 69%
    12:00 +1°C° 0.1 mm 6 mps 732 mmHg 70%
    13:00 +2°C° 0.1 mm 6 mps 732 mmHg 71%
    14:00 +2°C° 0.1 mm 6 mps 732 mmHg 72%
    15:00 +3°C° 0 mm 6 mps 732 mmHg 72%
    16:00 +3°C° 0 mm 6 mps 732 mmHg 72%
    17:00 +3°C° 0 mm 6 mps 733 mmHg 72%
    18:00 +3°C° 0 mm 6 mps 733 mmHg 72%
    19:00 +3°C° 0 mm 6 mps 733 mmHg 73%
    20:00 +3°C° 0 mm 5 mps 733 mmHg 74%
    21:00 +3°C° 0 mm 5 mps 734 mmHg 74%
    22:00 +3°C° 0 mm 5 mps 734 mmHg 74%
    23:00 +3°C° 0 mm 5 mps 734 mmHg 74%

    Tomorrow, 12 December, Tuesday

    Time Temperature Precipitation Wind Pressure Humidity
    00:00 +3°C° 0 mm 5 mps 734 mmHg 75%
    01:00 +3°C° 0 mm 5 mps 734 mmHg 76%
    02:00 +2°C° 0 mm 5 mps 734 mmHg 77%
    03:00 +3°C° 0 mm 5 mps 734 mmHg 77%
    04:00 +3°C° 0 mm 5 mps 734 mmHg 77%
    05:00 +3°C° 0 mm 5 mps 734 mmHg 77%
    06:00 +3°C° 0 mm 5 mps 734 mmHg 77%
    07:00 +3°C° 0 mm 5 mps 734 mmHg 77%
    08:00 +3°C° 0 mm 5 mps 734 mmHg 77%
    09:00 +5°C° 0 mm 5 mps 735 mmHg 74%
    10:00 +6°C° 0 mm 5 mps 735 mmHg 70%
    11:00 +7°C° 0 mm 5 mps 735 mmHg 67%
    12:00 +8°C° 0 mm 5 mps 735 mmHg 66%
    13:00 +9°C° 0 mm 5 mps 735 mmHg 65%
    14:00 +10°C° 0 mm 5 mps 736 mmHg 64%
    15:00 +9°C° 0 mm 5 mps 736 mmHg 67%
    16:00 +8°C° 0 mm 5 mps 736 mmHg 71%
    17:00 +7°C° 0 mm 4 mps 737 mmHg 74%
    18:00 +7°C° 0 mm 4 mps 737 mmHg 76%
    19:00 +7°C° 0 mm 4 mps 737 mmHg 78%
    20:00 +7°C° 0 mm 4 mps 738 mmHg 80%
    21:00 +8°C° 0 mm 3 mps 738 mmHg 80%
    22:00 +7°C° 0 mm 3 mps 738 mmHg 81%
    23:00 +7°C° 0 mm 3 mps 738 mmHg 82%

    Day after tomorrow, 13 December, Wednesday

    Time Temperature Precipitation Wind Pressure Humidity
    00:00 +7°C° 0 mm 3 mps 738 mmHg 82%
    01:00 +7°C° 0 mm 3 mps 738 mmHg 81%
    02:00 +7°C° 0 mm 3 mps 738 mmHg 81%
    03:00 +7°C° 0 mm 3 mps 738 mmHg 82%
    04:00 +5°C° 0 mm 3 mps 738 mmHg 82%
    05:00 +6°C° 0 mm 2 mps 738 mmHg 83%
    06:00 +4°C° 0 mm 3 mps 738 mmHg 85%
    07:00 +4°C° 0 mm 3 mps 739 mmHg 86%
    08:00 +3°C° 0 mm 3 mps 739 mmHg 88%
    09:00 +3°C° 0 mm 3 mps 739 mmHg 86%
    10:00 +3°C° 0 mm 4 mps 740 mmHg 83%
    11:00 +4°C° 0 mm 4 mps 740 mmHg 81%
    12:00 +3°C° 0 mm 4 mps 740 mmHg 80%
    13:00 +3°C° 0 mm 4 mps 740 mmHg 80%
    14:00 +3°C° 0 mm 4 mps 740 mmHg 79%
    15:00 +3°C° 0 mm 3 mps 740 mmHg 81%
    16:00 +2°C° 0 mm 3 mps 740 mmHg 83%
    17:00 +3°C° 0 mm 2 mps 740 mmHg 85%
    18:00 +3°C° 0 mm 2 mps 740 mmHg 86%
    19:00 +2°C° 0 mm 2 mps 740 mmHg 86%
    20:00 +3°C° 0 mm 1 mps 740 mmHg 87%
    21:00 +3°C° 0.1 mm 1 mps 740 mmHg 87%
    22:00 +3°C° 0.1 mm 1 mps 740 mmHg 88%
    23:00 +3°C° 0.1 mm 1 mps 739 mmHg 88%

    14 December, Thursday

    Time Temperature Precipitation Wind Pressure Humidity
    00:00 +3°C° 0.1 mm 1 mps 739 mmHg 88%
    01:00 +3°C° 0.1 mm 1 mps 739 mmHg 89%
    02:00 +3°C° 0.1 mm 1 mps 738 mmHg 90%
    03:00 +2°C° 0 mm 1 mps 738 mmHg 91%
    04:00 +2°C° 0 mm 1 mps 738 mmHg 92%
    05:00 +2°C° 0 mm 1 mps 737 mmHg 94%
    06:00 +2°C° 0 mm 1 mps 737 mmHg 94%
    07:00 -1°C° 0 mm 2 mps 737 mmHg 95%
    08:00 -1°C° 0 mm 2 mps 737 mmHg 95%
    09:00 +1°C° 0 mm 2 mps 737 mmHg 93%
    10:00 +2°C° 0 mm 2 mps 736 mmHg 90%
    11:00 +2°C° 0 mm 3 mps 736 mmHg 88%
    12:00 +2°C° 0 mm 3 mps 736 mmHg 86%
    13:00 +3°C° 0 mm 3 mps 735 mmHg 85%
    14:00 +3°C° 0 mm 3 mps 735 mmHg 83%
    15:00 +3°C° 0 mm 3 mps 735 mmHg 86%
    16:00 +2°C° 0 mm 3 mps 734 mmHg 89%
    17:00 +1°C° 0 mm 3 mps 734 mmHg 92%
    18:00 +1°C° 0 mm 3 mps 734 mmHg 92%
    19:00 0°C° 0 mm 4 mps 734 mmHg 92%
    20:00 0°C° 0 mm 4 mps 733 mmHg 92%
    21:00 0°C° 0 mm 4 mps 733 mmHg 92%
    22:00 0°C° 0 mm 4 mps 733 mmHg 91%
    23:00 0°C° 0 mm 4 mps 732 mmHg 90%

    15 December, Friday

    Time Temperature Precipitation Wind Pressure Humidity
    00:00 0°C° 0.1 mm 4 mps 732 mmHg 88%
    01:00 +1°C° 0.1 mm 4 mps 731 mmHg 87%
    02:00 +1°C° 0.1 mm 5 mps 731 mmHg 85%
    03:00 +1°C° 0 mm 5 mps 731 mmHg 84%
    04:00 +1°C° 0 mm 5 mps 730 mmHg 82%
    05:00 +1°C° 0 mm 5 mps 730 mmHg 81%
    06:00 +1°C° 0 mm 5 mps 730 mmHg 80%
    07:00 +1°C° 0 mm 5 mps 730 mmHg 79%
    08:00 +1°C° 0 mm 5 mps 730 mmHg 78%
    09:00 +2°C° 0 mm 5 mps 730 mmHg 75%
    10:00 +3°C° 0 mm 5 mps 731 mmHg 71%
    11:00 +6°C° 0 mm 5 mps 731 mmHg 68%
    12:00 +6°C° 0 mm 5 mps 731 mmHg 67%
    13:00 +7°C° 0 mm 5 mps 731 mmHg 66%
    14:00 +7°C° 0 mm 4 mps 731 mmHg 66%
    15:00 +7°C° 0 mm 4 mps 731 mmHg 69%
    16:00 +7°C° 0 mm 3 mps 731 mmHg 71%
    17:00 +7°C° 0 mm 3 mps 731 mmHg 74%
    18:00 +7°C° 0.1 mm 3 mps 730 mmHg 75%
    19:00 +7°C° 0.1 mm 3 mps 730 mmHg 76%
    20:00 +6°C° 0.1 mm 4 mps 730 mmHg 77%
    21:00 +6°C° 0.1 mm 5 mps 729 mmHg 77%
    22:00 +6°C° 0.1 mm 5 mps 728 mmHg 77%
    23:00 +5°C° 0.1 mm 6 mps 728 mmHg 76%

    16 December, Saturday

    Time Temperature Precipitation Wind Pressure Humidity
    00:00 +5°C° 0 mm 7 mps 727 mmHg 77%
    01:00 +5°C° 0 mm 7 mps 726 mmHg 77%
    02:00 +5°C° 0 mm 7 mps 725 mmHg 77%
    03:00 +5°C° 0.2 mm 7 mps 725 mmHg 79%
    04:00 +5°C° 0.2 mm 7 mps 725 mmHg 81%
    05:00 +5°C° 0.2 mm 7 mps 724 mmHg 82%
    06:00 +5°C° 0 mm 6 mps 725 mmHg 81%
    07:00 +5°C° 0 mm 6 mps 725 mmHg 79%
    08:00 +6°C° 0 mm 5 mps 725 mmHg 78%
    09:00 +5°C° 0 mm 6 mps 726 mmHg 76%
    10:00 +5°C° 0 mm 6 mps 727 mmHg 73%
    11:00 +4°C° 0 mm 7 mps 728 mmHg 71%
    12:00 +4°C° 0 mm 7 mps 729 mmHg 71%
    13:00 +3°C° 0 mm 6 mps 730 mmHg 70%
    14:00 +3°C° 0 mm 6 mps 731 mmHg 70%
    15:00 +2°C° 0 mm 5 mps 732 mmHg 71%
    16:00 +1°C° 0 mm 4 mps 733 mmHg 72%
    17:00 +2°C° 0 mm 3 mps 734 mmHg 74%
    18:00 +1°C° 0 mm 3 mps 735 mmHg 75%
    19:00 +1°C° 0 mm 3 mps 735 mmHg 77%
    20:00 +1°C° 0 mm 3 mps 736 mmHg 79%
    21:00 +1°C° 0 mm 2 mps 737 mmHg 80%
    22:00 +1°C° 0 mm 2 mps 737 mmHg 81%
    23:00 +1°C° 0 mm 2 mps 738 mmHg 82%
    Show more